Tracking 28794 objects as of 19-Apr-2024
HD Live streaming from Space Station
objects crossing your sky now

TITAN 3C TRANSTAGE DEB

Track TITAN 3C TRANSTAGE DEB now!
10-day predictions


NORAD ID: 1883
Int'l Code: 1965-082EY
Perigee: 532.1 km
Apogee: 558.5 km
Inclination: 32.1 °
Period: 95.4 minutes
Semi major axis: 6916 km
RCS: 0.045 m2 (small)
Launch date: October 15, 1965
Source: United States (US)
Launch site: AIR FORCE EASTERN TEST RANGE (AFETR)

Note: This is SATELLITE DEBRIS
Your satellite tracking list
Your tracking list is empty




NASA's NSSDC Master Catalog

Two Line Element Set (TLE):
1 01883U 65082EY  24110.29047524  .00010930  00000-0  66139-3 0  9993
2 01883  32.0928  81.9987 0019073 236.3714 123.5124 15.09370367145407
Source of the keplerian elements: AFSPC